Wind_Speed
18 16 16 14 13 11 9 8 7 8 9 11 13 15 15 15 15 15 15 16 17 18 18 18 18 18 18 18 18 17 17 18 18 18 17 17 18 18 18 18 19 19 19 19 20 21 22 23 23 23 21 20 19 18 19 20 21 20 19 18 19 18 18
15 11 12 14 13 11 9 9 9 9 9 9 12 13 14 14 14 15 16 17 18 19 19 19 18 18 17 17 17 17 17 17 18 18 18 18 17 18 18 19 20 20 20 20 20 21 22 23 24 24 22 21 19 19 19 20 21 20 19 19 19 20 19
16 12 13 15 13 12 11 11 11 10 10 10 10 11 12 13 14 15 15 16 17 18 18 18 18 18 17 17 17 17 17 18 19 19 19 17 17 18 19 20 21 22 22 21 21 22 23 23 23 23 23 22 21 19 19 20 21 20 20 19 20 21 20
19 16 16 16 14 13 12 12 11 12 12 11 10 10 11 12 14 14 15 15 16 16 17 17 17 18 17 17 18 17 18 18 19 19 18 17 18 19 20 21 22 23 24 24 23 23 23 23 23 23 23 23 22 21 20 20 21 21 20 20 21 21 21
21 20 18 17 16 14 13 13 12 13 13 12 11 11 11 13 14 14 14 15 15 16 17 17 17 17 17 17 17 17 17 18 18 18 18 18 19 21 21 22 23 24 25 25 25 25 24 24 24 23 23 23 24 23 22 21 21 21 20 20 21 21 21
19 21 19 17 16 15 14 14 14 14 15 14 13 13 13 13 13 13 14 15 15 17 18 18 17 16 16 16 16 16 17 17 18 18 18 18 20 22 22 23 24 25 27 27 27 27 26 25 25 24 24 24 25 26 24 22 22 22 21 21 22 22 22
19 21 21 20 20 18 17 16 17 17 17 16 16 15 14 14 13 14 14 15 16 18 18 18 18 17 17 17 17 17 17 18 18 18 18 19 21 23 25 26 27 28 30 30 30 29 29 27 27 27 27 26 26 27 27 25 24 23 23 22 23 23 23
18 21 21 20 21 23 22 19 19 19 19 18 17 17 16 15 15 15 15 16 17 18 18 18 18 18 18 18 18 17 17 17 18 19 21 21 22 25 28 29 30 31 33 34 34 33 32 31 30 29 29 30 30 29 29 28 27 26 25 25 25 26 25
17 19 18 17 19 24 24 21 20 21 21 20 19 18 18 17 16 17 17 17 17 17 18 19 19 19 19 18 17 16 16 16 18 20 20 20 22 26 28 29 30 32 34 36 37 37 35 35 34 32 32 34 34 33 32 31 30 28 27 27 28 28 27
18 18 17 17 19 22 24 24 22 21 22 23 21 21 20 19 19 19 19 18 18 18 19 20 20 20 19 18 16 15 16 15 15 18 19 20 22 25 28 30 31 32 31 32 34 37 38 37 36 36 37 39 38 36 34 33 32 30 29 28 29 29 28
21 20 20 20 21 23 25 25 22 22 24 25 24 23 23 22 21 19 19 20 19 20 21 21 21 20 19 16 15 16 16 14 13 15 19 21 24 27 31 34 35 34 32 30 31 33 35 35 36 38 40 40 39 37 35 34 33 31 30 29 29 29 30
23 24 22 22 23 24 26 24 21 22 24 25 26 25 25 24 22 19 19 20 21 21 21 21 20 19 18 16 16 16 16 14 14 15 18 22 24 26 29 32 32 32 32 31 32 32 31 30 32 34 36 37 37 37 37 36 34 32 30 30 30 31 31
26 26 23 23 25 25 25 23 20 22 24 26 27 27 26 25 23 20 19 20 21 22 22 21 20 20 18 16 16 15 14 15 17 17 18 20 22 24 27 29 30 30 30 30 29 29 29 29 30 30 31 33 35 36 38 37 34 32 32 32 32 32 32
23 23 22 24 25 24 24 24 23 24 26 27 28 28 28 26 24 22 21 21 21 21 21 21 20 18 16 15 15 13 14 17 20 21 21 21 22 24 27 30 31 31 31 29 26 26 28 29 30 30 29 30 32 34 35 35 34 33 32 32 33 33 33
19 20 21 23 24 25 26 25 25 26 27 28 29 29 28 26 25 24 22 22 21 21 20 19 19 18 16 16 16 16 17 20 23 25 27 27 27 27 28 30 31 31 31 30 28 28 30 31 30 29 28 29 30 32 32 33 33 32 31 31 32 33 34
20 22 23 22 22 24 25 24 24 25 26 28 29 29 27 25 25 23 22 21 20 19 18 17 18 18 18 18 18 19 22 24 26 28 30 31 30 30 29 30 31 31 31 31 31 32 33 34 32 30 28 29 30 31 30 31 32 31 30 31 32 33 34
24 24 25 24 23 24 25 23 23 23 24 26 26 26 25 24 23 21 19 18 16 16 15 16 17 18 18 19 21 23 25 26 28 30 32 32 33 33 33 32 32 31 30 30 32 33 35 36 33 29 28 29 31 31 30 31 32 31 30 33 35 35 34
28 26 26 26 26 26 25 24 23 22 22 22 23 23 23 23 22 19 17 16 15 15 15 16 16 18 19 22 24 26 27 29 30 32 33 35 36 36 36 35 33 32 30 30 31 33 35 35 33 29 29 30 30 30 30 30 32 32 32 33 34 33 32
31 28 26 26 27 27 26 24 23 22 23 24 24 24 24 24 23 20 18 18 17 17 17 17 17 19 21 23 26 28 30 31 33 34 36 37 39 39 38 37 37 35 34 32 32 33 33 32 31 30 30 31 31 30 29 28 29 29 29 29 29 30 31
32 29 27 27 28 27 26 24 23 24 27 29 28 27 27 27 25 23 23 21 20 21 21 21 21 22 23 25 27 29 32 33 35 36 37 38 41 41 40 40 39 38 37 35 34 32 30 30 30 30 29 31 32 30 28 25 25 26 28 27 27 28 28
33 32 29 29 28 28 26 24 25 28 32 33 32 31 31 30 28 27 26 24 23 25 26 26 26 27 27 28 29 31 33 35 37 38 39 41 43 44 43 42 40 40 39 37 34 31 29 30 32 32 30 31 33 31 28 25 25 27 27 26 25 26 27
35 35 32 30 29 29 27 26 28 32 35 36 35 34 34 33 30 29 28 26 26 28 29 29 29 30 31 32 33 34 36 38 40 41 42 43 45 46 46 44 42 41 40 36 33 32 31 31 32 32 31 33 34 33 29 27 28 29 27 25 25 27 28
37 37 35 33 32 32 31 30 32 36 38 38 38 37 37 35 33 31 29 28 29 31 32 32 32 32 33 35 37 38 39 41 43 44 44 46 47 48 48 45 43 43 40 35 33 32 32 32 31 31 33 36 35 33 32 31 31 31 29 28 27 28 29
37 37 36 35 33 33 34 35 36 38 41 42 42 40 38 37 35 32 31 32 32 33 33 33 34 34 36 38 40 41 42 43 45 46 46 47 49 49 48 45 44 44 39 33 32 32 31 32 31 31 35 37 35 35 36 35 35 34 32 31 30 30 30
38 37 36 35 34 34 36 38 40 42 44 46 44 42 40 39 36 34 34 35 35 35 35 35 35 36 37 40 42 43 44 45 46 47 48 49 50 50 48 44 45 44 38 32 32 31 29 30 31 31 34 36 36 37 37 36 37 37 35 35 34 33 33
40 38 37 36 36 37 38 40 43 44 46 47 46 44 42 41 38 37 37 37 37 37 36 36 36 38 40 43 44 44 46 47 48 48 48 49 51 51 49 47 47 44 37 32 32 31 29 31 31 31 32 35 37 38 36 36 37 37 37 38 38 36 36
41 40 39 38 37 38 40 42 44 46 47 48 46 44 44 43 42 41 40 39 39 38 38 38 40 42 44 45 45 46 48 49 48 47 48 49 52 54 54 53 49 42 35 32 33 32 31 32 32 30 31 33 36 37 37 37 36 37 39 42 42 42 43
42 41 40 39 38 39 40 41 43 45 47 47 46 45 44 44 44 42 41 41 40 40 41 42 44 45 45 46 46 47 49 49 48 47 47 49 52 55 57 52 44 38 34 33 33 34 34 34 32 30 29 30 32 35 36 38 39 40 42 43 45 47 47
40 41 41 42 41 39 38 39 40 42 45 46 46 45 45 45 45 43 41 41 40 41 43 44 45 46 46 46 47 49 50 51 49 47 47 49 51 54 51 44 37 35 35 34 34 35 34 32 29 28 27 28 31 34 35 37 40 41 42 44 46 47 44
38 41 42 42 41 38 37 37 39 41 44 46 47 48 49 48 44 40 39 40 40 41 42 43 45 47 48 49 50 51 50 49 49 48 48 49 50 48 43 37 35 35 35 34 33 32 30 28 27 27 27 28 30 32 34 38 40 40 42 46 46 43 40
40 41 41 40 39 38 38 38 40 43 46 48 50 52 50 44 38 37 38 40 40 41 42 42 43 45 47 50 51 50 49 48 49 50 49 46 44 42 39 38 39 38 37 35 33 31 29 28 28 29 29 29 29 31 35 38 40 42 45 45 41 37 36
41 42 40 39 39 39 39 40 42 45 47 48 49 48 43 38 36 37 38 39 40 41 42 41 41 42 44 44 44 45 46 47 48 47 43 40 40 40 41 41 41 40 38 36 35 33 30 29 29 30 29 28 29 32 34 35 38 42 42 38 35 35 38
40 40 39 39 39 39 40 41 42 44 44 44 42 40 38 37 38 38 38 39 40 41 41 41 41 41 41 40 39 39 41 41 41 38 36 36 38 40 42 43 41 40 39 39 38 37 34 30 29 28 28 29 30 32 33 35 39 40 38 35 36 40 44
38 38 38 38 39 40 40 41 41 41 42 42 41 39 38 38 37 38 39 40 40 40 40 40 40 40 40 39 38 37 36 36 35 34 34 36 38 39 41 41 40 40 41 41 40 37 33 30 27 28 30 33 34 33 35 37 38 38 37 39 43 45 46
39 39 39 39 40 40 38 38 39 38 38 39 39 38 38 38 38 40 41 41 41 41 42 41 40 40 40 39 38 37 36 35 35 35 36 37 37 38 40 41 42 43 41 40 39 35 30 28 30 33 35 36 35 34 36 37 38 39 42 45 47 47 47
39 39 40 41 40 39 38 38 39 38 38 39 39 39 39 40 41 42 42 42 43 43 42 41 40 40 40 40 40 39 38 38 37 36 37 37 37 39 40 40 41 40 37 34 31 28 27 30 36 37 35 34 34 36 37 39 41 44 46 47 47 47 46
42 41 42 42 42 42 42 41 39 39 40 40 40 39 40 42 43 43 44 44 43 42 42 41 40 40 41 41 42 41 40 40 39 38 38 38 39 39 39 37 35 35 34 30 27 27 32 39 39 36 34 35 37 39 41 42 44 45 46 46 45 44 44
45 43 42 43 44 44 43 41 39 39 41 41 41 41 43 44 45 45 45 44 42 42 41 41 41 42 42 43 43 42 41 40 39 39 39 40 40 40 39 38 36 35 35 34 34 37 42 42 37 34 35 38 39 41 42 43 44 44 44 43 43 43 44
Wind_Direction
255 255 249 245 246 247 246 253 260 261 256 251 251 254 255 254 253 252 252 253 254 255 258 261 265 268 269 272 273 273 271 273 278 282 286 290 291 294 296 297 296 296 295 295 295 297 298 300 302 304 306 306 305 304 303 301 299 297 295 294 294 293 294
256 256 259 260 259 259 261 267 277 280 270 255 250 254 259 259 258 257 255 256 257 259 262 265 266 267 267 269 270 270 270 272 276 280 285 289 291 294 295 294 293 292 291 291 292 293 295 297 299 302 305 304 303 302 301 299 298 297 295 293 294 294 294
255 262 271 268 262 264 271 276 280 278 274 267 258 258 263 265 265 264 263 263 263 264 265 265 266 265 264 266 266 267 269 272 274 278 283 287 289 291 292 292 290 288 287 287 288 290 292 294 296 299 302 302 300 300 300 298 297 296 294 292 293 294 293
258 263 265 260 258 264 271 280 284 279 273 269 265 265 270 271 271 270 270 269 268 267 265 263 263 264 264 265 265 265 266 268 271 276 281 285 286 287 289 290 289 287 287 287 288 289 291 292 293 295 297 297 298 299 299 298 297 295 292 289 290 292 291
254 256 252 249 254 259 265 277 283 276 268 263 265 270 272 274 276 275 271 267 266 264 263 260 259 261 262 261 261 262 263 265 268 273 277 280 283 285 287 289 289 289 290 290 291 292 292 292 292 292 293 294 296 297 298 297 296 294 290 287 288 290 290
243 247 245 244 251 255 256 264 270 268 265 261 263 269 274 279 282 278 270 264 260 257 257 257 257 257 257 256 256 257 258 261 265 269 275 281 285 289 292 293 292 294 295 294 294 293 294 295 293 291 289 291 293 294 295 296 295 294 291 287 287 290 290
230 228 232 238 247 252 249 249 254 258 260 259 261 268 275 283 287 281 270 261 255 252 252 255 257 256 255 252 252 253 257 263 269 277 284 287 291 296 299 298 297 298 298 296 294 293 293 296 296 292 288 287 287 288 290 293 293 292 291 289 289 291 290
221 216 222 229 239 247 247 242 243 247 254 259 263 268 275 282 287 283 272 262 256 251 249 251 254 254 253 252 252 256 265 278 289 294 289 285 290 299 303 301 298 298 297 296 296 294 293 293 293 291 288 286 284 285 288 290 290 288 288 289 290 290 289
220 221 225 225 229 241 245 241 240 244 252 259 262 267 273 278 282 280 272 265 259 251 245 246 247 249 251 253 258 268 281 293 302 302 297 291 294 302 305 304 301 300 297 296 295 293 292 290 288 287 288 288 285 285 288 289 288 286 285 286 289 288 285
228 234 239 237 234 238 242 243 245 249 254 259 264 268 271 274 278 277 270 264 256 247 242 242 244 247 252 259 272 285 292 297 302 305 307 306 305 308 308 305 302 299 298 299 297 294 293 290 286 287 290 290 286 285 287 289 287 285 284 285 287 285 281
230 238 246 251 248 244 245 248 252 254 256 260 264 267 268 271 276 274 266 258 250 243 243 246 247 252 260 273 288 295 294 295 297 299 304 307 309 311 309 305 303 300 299 302 304 304 302 296 290 289 290 290 286 282 286 289 287 285 284 284 284 282 281
226 236 245 254 252 244 246 251 254 254 255 257 261 265 266 269 274 272 261 254 249 246 249 252 257 264 274 285 293 295 295 295 290 291 302 308 311 314 313 313 315 312 308 305 304 306 308 305 301 295 292 291 288 285 287 287 285 284 284 283 282 281 281
225 233 241 251 252 246 246 250 252 252 253 256 260 262 264 267 271 269 260 255 252 253 256 260 267 274 281 288 291 291 290 289 287 295 312 319 319 322 322 322 324 322 317 312 306 305 308 309 309 304 297 295 293 291 290 286 283 283 283 281 281 281 282
225 230 237 248 252 247 242 244 247 251 255 257 259 260 262 266 267 263 259 257 256 258 261 266 272 278 285 291 292 287 282 285 293 304 316 319 320 323 323 323 323 320 317 313 307 307 309 309 309 307 302 298 296 294 293 289 284 282 280 279 279 281 284
228 234 239 245 247 244 239 240 246 251 256 258 258 258 260 263 263 260 260 261 262 263 267 272 277 281 289 297 296 291 289 293 303 310 312 314 317 319 319 320 320 319 317 313 308 307 309 309 310 309 304 299 296 294 294 292 287 282 278 277 279 283 285
231 237 240 241 242 243 240 241 246 251 254 255 256 258 261 262 261 260 262 264 267 271 275 280 282 286 293 299 299 298 298 300 305 307 308 312 316 317 317 318 318 318 316 314 310 307 306 307 308 307 303 299 295 293 293 291 285 279 276 275 278 285 287
228 232 234 236 241 242 240 241 246 248 249 251 254 257 259 258 258 258 259 261 265 272 277 280 284 289 295 299 299 300 300 301 302 302 303 308 313 316 318 319 319 318 314 310 306 302 300 301 301 300 299 298 296 294 293 290 283 278 276 275 278 284 287
227 228 230 235 240 241 240 242 246 248 250 254 257 259 258 256 257 257 254 255 260 268 273 278 285 292 297 299 302 302 302 302 302 301 302 307 312 315 317 318 318 317 312 307 302 297 295 297 296 293 296 298 296 294 291 286 281 279 279 278 279 283 287
227 228 231 234 235 236 239 242 245 249 254 258 261 262 260 258 259 259 258 259 265 272 276 280 287 294 299 303 306 307 306 305 303 301 302 307 311 314 315 315 315 314 310 306 302 295 292 294 292 289 293 297 296 291 284 278 276 278 279 280 282 286 291
223 224 225 225 229 233 237 241 245 249 252 255 259 263 263 263 265 266 267 270 277 281 282 284 288 292 297 302 306 309 308 306 303 301 301 306 310 312 312 312 312 312 310 307 301 294 288 288 289 288 290 294 293 287 277 271 272 276 278 281 286 289 293
220 219 219 220 226 233 237 241 244 248 252 257 262 264 265 266 269 269 271 276 282 283 284 287 290 291 293 298 303 306 308 308 305 301 301 304 308 310 309 309 309 310 309 305 300 294 287 286 289 290 289 291 290 283 271 265 269 274 275 280 285 287 290
217 216 216 218 225 231 235 238 238 241 250 258 262 262 263 264 266 269 274 279 280 280 283 288 290 290 292 295 299 303 306 307 305 302 301 303 306 307 307 307 307 308 307 303 298 294 289 287 290 290 289 290 288 280 270 262 263 268 270 274 279 285 289
217 217 217 219 224 228 232 235 235 237 247 255 258 258 259 261 264 270 276 278 278 278 282 286 288 289 291 294 298 301 302 304 303 302 301 302 304 305 305 305 306 306 304 298 294 291 289 288 288 288 290 290 284 276 269 262 259 263 266 269 276 284 289
216 217 217 218 222 226 232 238 239 241 246 251 253 255 258 260 264 270 275 276 276 276 279 283 285 287 290 293 296 299 300 301 301 299 299 300 302 303 303 302 303 304 301 294 290 290 290 291 291 290 292 289 279 269 267 263 258 259 262 266 273 283 288
215 215 216 216 219 225 233 239 241 243 247 250 253 256 259 261 265 270 274 273 272 273 276 279 282 285 289 292 295 297 298 298 298 298 299 299 300 302 302 299 300 300 297 290 288 289 291 293 293 293 291 283 270 263 263 262 259 259 261 264 269 277 285
217 217 220 221 223 227 232 238 241 244 248 251 254 258 261 263 266 269 271 270 269 270 273 277 281 285 289 291 293 295 296 296 296 297 298 298 298 300 300 299 299 297 293 288 288 289 291 291 291 290 287 277 267 262 262 261 260 262 266 266 266 272 282
218 221 225 227 229 231 234 238 242 245 248 251 255 259 263 265 268 269 269 268 267 268 271 275 281 286 288 289 290 292 293 295 296 296 296 298 298 298 299 299 297 292 288 288 289 290 290 289 287 285 283 276 269 267 267 264 265 269 270 266 265 271 278
221 223 228 230 232 234 237 241 244 247 251 255 258 261 264 267 268 267 265 264 266 271 276 281 284 286 286 287 288 288 291 294 295 294 296 298 298 297 298 297 291 286 286 288 290 291 290 287 284 281 278 276 273 272 272 271 272 275 274 270 269 270 273
224 226 231 233 235 238 241 245 248 251 254 257 260 263 265 265 265 264 265 269 275 281 284 284 283 283 285 287 287 286 287 290 292 293 295 297 298 297 295 291 286 286 288 290 292 293 289 285 281 279 280 282 279 275 275 277 276 275 276 278 277 274 275
227 230 234 236 239 242 245 248 250 252 253 255 257 258 257 257 259 263 270 276 280 281 281 281 281 282 284 285 285 285 286 287 290 293 295 296 296 295 292 288 287 288 290 291 293 292 288 285 283 284 287 286 280 277 280 282 278 276 280 286 285 282 280
228 231 235 238 242 244 246 247 248 249 250 249 250 251 253 256 261 267 273 276 276 277 279 280 282 283 283 283 284 286 287 287 289 292 293 293 293 292 291 290 290 291 292 292 292 290 287 285 285 287 289 285 280 282 286 285 282 282 286 288 286 283 283
229 231 235 237 239 239 239 241 243 245 246 246 248 252 258 263 265 267 269 272 273 275 277 279 281 282 283 284 286 288 289 288 288 289 289 290 290 291 290 290 291 293 293 292 292 291 289 288 287 288 288 285 284 287 288 288 288 288 286 284 284 288 294
230 232 234 235 236 237 238 239 241 243 245 249 253 258 263 266 267 267 269 271 272 273 274 277 279 281 282 285 289 290 291 290 288 286 285 286 287 287 288 290 291 293 293 292 291 291 291 290 289 287 286 286 287 289 289 289 288 286 284 285 292 298 301
229 231 233 236 239 242 245 247 249 251 253 255 259 262 265 267 268 269 270 270 270 271 274 276 279 279 281 285 289 290 289 288 285 282 282 283 284 285 287 289 290 291 292 290 288 287 287 287 286 287 289 290 289 287 285 283 281 283 286 291 295 298 298
231 234 237 239 241 242 244 248 252 255 256 257 259 261 263 266 269 271 271 270 271 272 273 275 277 278 281 284 286 286 285 283 281 280 281 282 284 286 287 289 290 290 289 286 283 281 280 281 287 292 294 293 291 285 280 278 280 285 291 294 295 296 297
235 237 239 240 240 241 243 247 253 256 258 261 262 262 263 267 270 272 272 272 272 272 272 273 275 278 281 283 284 283 283 281 280 281 282 283 285 287 289 293 292 288 283 279 275 274 279 287 293 295 293 291 288 283 279 280 283 288 292 294 295 296 296
238 239 239 239 240 243 247 251 255 259 262 263 263 262 265 269 271 272 272 271 271 271 271 273 276 278 280 282 282 282 282 281 282 283 283 284 286 287 290 293 291 285 281 276 270 275 290 297 296 293 289 287 285 282 282 284 287 290 292 293 293 294 294
242 243 243 244 245 248 250 253 256 259 261 261 261 263 267 270 270 270 269 268 269 270 272 274 277 279 280 281 281 281 281 282 282 283 283 285 286 286 287 288 285 282 284 281 277 283 294 298 292 286 284 283 283 283 284 287 289 290 290 290 290 291 291
Height
5907 5907 5906 5906 5906 5906 5907 5907 5908 5908 5909 5909 5910 5910 5911 5912 5913 5913 5914 5914 5915 5915 5915 5915 5915 5915 5915 5915 5915 5915 5915 5915 5914 5914 5914 5913 5913 5912 5912 5911 5911 5910 5909 5909 5908 5908 5907 5906 5905 5904 5904 5903 5903 5902 5901 5900 5899 5899 5898 5897 5895 5894 5893
5906 5907 5907 5906 5906 5906 5906 5906 5907 5907 5907 5908 5908 5909 5909 5910 5911 5911 5912 5912 5912 5912 5913 5913 5913 5913 5913 5912 5912 5913 5912 5912 5912 5911 5911 5911 5910 5910 5910 5909 5908 5908 5907 5906 5905 5905 5904 5903 5902 5901 5901 5901 5900 5899 5898 5897 5896 5895 5895 5894 5893 5892 5890
5905 5906 5906 5906 5905 5905 5905 5906 5906 5906 5906 5907 5907 5908 5908 5909 5909 5909 5909 5910 5910 5910 5910 5910 5910 5910 5910 5910 5910 5910 5910 5910 5909 5909 5909 5908 5908 5908 5907 5907 5906 5905 5904 5903 5903 5902 5901 5900 5899 5899 5898 5897 5897 5896 5895 5894 5893 5892 5892 5891 5891 5890 5888
5903 5904 5905 5904 5904 5904 5905 5905 5905 5905 5905 5905 5906 5906 5907 5907 5907 5907 5907 5907 5907 5908 5908 5908 5907 5907 5907 5907 5907 5907 5907 5907 5906 5906 5906 5906 5906 5905 5905 5904 5903 5902 5901 5901 5900 5899 5898 5898 5897 5896 5895 5894 5893 5893 5892 5891 5890 5890 5889 5888 5888 5887 5886
5901 5902 5903 5903 5903 5903 5904 5904 5905 5904 5904 5904 5905 5905 5905 5905 5905 5905 5905 5905 5905 5905 5905 5905 5905 5905 5905 5904 5904 5904 5904 5904 5904 5904 5904 5904 5903 5902 5902 5901 5901 5900 5899 5898 5898 5897 5896 5895 5894 5893 5892 5891 5890 5889 5889 5888 5887 5886 5886 5885 5884 5883 5882
5899 5900 5901 5901 5901 5901 5902 5903 5903 5903 5903 5903 5903 5903 5904 5904 5903 5903 5903 5903 5903 5903 5903 5903 5903 5902 5902 5901 5901 5901 5901 5901 5901 5902 5902 5902 5901 5901 5900 5900 5899 5898 5897 5896 5896 5895 5894 5893 5892 5891 5890 5889 5888 5886 5886 5885 5884 5883 5882 5882 5881 5880 5879
5896 5897 5898 5899 5899 5900 5900 5901 5901 5901 5901 5901 5901 5902 5902 5902 5902 5901 5901 5901 5901 5900 5900 5900 5900 5900 5899 5899 5899 5899 5899 5899 5900 5901 5901 5900 5900 5899 5899 5898 5897 5897 5895 5894 5893 5892 5891 5890 5889 5888 5886 5886 5885 5883 5882 5882 5880 5879 5878 5878 5877 5876 5875
5893 5895 5896 5897 5897 5897 5897 5898 5898 5899 5899 5899 5899 5900 5900 5900 5900 5899 5899 5899 5898 5898 5898 5898 5897 5897 5896 5896 5896 5897 5898 5899 5900 5900 5899 5898 5897 5896 5896 5895 5894 5893 5892 5891 5890 5889 5888 5887 5885 5884 5882 5881 5881 5880 5879 5878 5877 5876 5875 5874 5873 5873 5871
5891 5892 5893 5894 5895 5894 5894 5895 5895 5896 5897 5897 5897 5898 5897 5898 5897 5897 5897 5896 5896 5896 5896 5895 5895 5894 5894 5894 5895 5897 5899 5899 5897 5896 5895 5895 5894 5893 5892 5891 5890 5889 5888 5887 5886 5885 5884 5882 5881 5880 5879 5877 5876 5876 5875 5874 5873 5872 5871 5870 5869 5868 5868
5889 5890 5891 5892 5892 5892 5892 5892 5893 5894 5894 5894 5895 5895 5895 5895 5895 5895 5894 5894 5894 5894 5893 5893 5892 5892 5892 5894 5896 5897 5897 5896 5894 5892 5891 5892 5891 5890 5889 5887 5886 5885 5884 5883 5881 5880 5879 5878 5876 5875 5874 5873 5872 5872 5871 5870 5869 5868 5867 5867 5865 5864 5863
5885 5887 5888 5889 5889 5889 5889 5890 5891 5891 5892 5892 5892 5892 5893 5893 5893 5892 5892 5892 5892 5892 5891 5890 5890 5891 5892 5894 5895 5894 5893 5891 5890 5889 5889 5890 5890 5888 5885 5883 5883 5882 5880 5879 5878 5876 5874 5873 5872 5871 5869 5868 5867 5866 5866 5865 5864 5863 5863 5862 5861 5860 5859
5882 5883 5885 5885 5886 5886 5886 5887 5888 5889 5889 5889 5889 5890 5890 5890 5890 5890 5890 5890 5890 5889 5888 5888 5889 5890 5891 5892 5892 5890 5888 5887 5887 5887 5888 5888 5888 5886 5883 5881 5880 5879 5877 5875 5873 5872 5870 5868 5867 5865 5864 5863 5862 5861 5861 5860 5859 5859 5858 5857 5857 5856 5855
5877 5878 5880 5881 5882 5883 5883 5884 5886 5886 5886 5886 5886 5887 5887 5887 5887 5887 5888 5888 5887 5887 5886 5886 5887 5888 5889 5889 5888 5886 5885 5883 5883 5885 5887 5887 5885 5884 5881 5879 5877 5875 5873 5871 5870 5868 5867 5865 5863 5861 5860 5859 5858 5856 5855 5855 5854 5854 5853 5853 5852 5852 5851
5873 5874 5876 5877 5878 5879 5881 5882 5883 5883 5883 5883 5883 5884 5884 5884 5884 5885 5885 5885 5885 5884 5884 5885 5885 5885 5886 5885 5884 5883 5882 5880 5880 5882 5884 5884 5883 5882 5879 5877 5875 5872 5870 5868 5867 5865 5864 5862 5861 5858 5856 5855 5853 5852 5850 5850 5850 5849 5848 5848 5848 5847 5847
5869 5871 5872 5874 5875 5876 5877 5879 5880 5880 5880 5880 5880 5880 5881 5881 5882 5882 5882 5882 5882 5882 5882 5882 5882 5882 5882 5882 5881 5880 5879 5879 5878 5878 5878 5879 5880 5879 5877 5874 5872 5869 5867 5865 5864 5862 5860 5859 5857 5855 5853 5851 5849 5847 5846 5846 5845 5844 5844 5844 5843 5843 5842
5866 5868 5869 5871 5872 5873 5874 5875 5876 5876 5876 5876 5877 5877 5878 5878 5878 5879 5878 5878 5879 5879 5879 5879 5879 5879 5879 5879 5878 5878 5877 5877 5876 5875 5873 5874 5875 5875 5873 5871 5869 5866 5864 5862 5860 5859 5856 5854 5853 5851 5848 5846 5845 5843 5842 5842 5840 5839 5839 5839 5839 5838 5838
5862 5864 5866 5868 5869 5870 5871 5872 5872 5873 5873 5873 5874 5874 5875 5875 5875 5875 5875 5876 5876 5876 5877 5877 5877 5876 5876 5876 5875 5875 5874 5873 5873 5871 5870 5870 5870 5870 5868 5867 5865 5863 5862 5859 5857 5855 5852 5850 5849 5847 5844 5842 5841 5839 5838 5838 5836 5835 5835 5835 5834 5833 5833
5858 5860 5862 5864 5865 5866 5867 5868 5869 5869 5870 5870 5871 5871 5872 5872 5872 5873 5873 5874 5874 5874 5874 5874 5874 5874 5873 5873 5872 5871 5870 5870 5869 5868 5866 5866 5865 5865 5863 5862 5860 5859 5857 5855 5853 5851 5848 5846 5844 5843 5841 5838 5836 5835 5834 5833 5832 5831 5830 5830 5829 5829 5828
5854 5856 5858 5860 5861 5863 5864 5865 5866 5866 5867 5867 5867 5868 5868 5868 5869 5870 5871 5871 5871 5872 5872 5871 5871 5870 5870 5869 5868 5868 5867 5866 5865 5863 5862 5862 5861 5860 5858 5857 5855 5853 5851 5850 5848 5845 5843 5841 5839 5838 5836 5834 5832 5831 5830 5829 5828 5826 5825 5825 5825 5824 5824
5849 5851 5853 5855 5857 5859 5860 5861 5862 5862 5862 5862 5863 5864 5864 5865 5866 5867 5867 5868 5868 5868 5868 5868 5867 5867 5866 5865 5865 5864 5863 5863 5861 5860 5858 5858 5856 5855 5854 5852 5850 5848 5846 5844 5842 5839 5838 5836 5834 5832 5831 5829 5828 5826 5826 5825 5824 5822 5821 5821 5821 5820 5819
5845 5847 5849 5850 5853 5855 5856 5858 5858 5858 5857 5857 5858 5860 5860 5861 5862 5863 5864 5864 5865 5864 5864 5864 5863 5863 5862 5861 5861 5860 5860 5859 5857 5856 5854 5853 5852 5850 5849 5847 5845 5843 5840 5838 5836 5833 5831 5830 5828 5827 5826 5824 5823 5822 5822 5821 5820 5819 5818 5818 5817 5816 5816
5840 5842 5844 5847 5849 5850 5852 5854 5854 5853 5853 5853 5854 5855 5856 5857 5859 5860 5860 5861 5861 5861 5860 5860 5859 5859 5858 5857 5856 5856 5855 5854 5853 5851 5849 5848 5847 5845 5843 5841 5839 5837 5835 5832 5830 5828 5826 5824 5824 5823 5821 5820 5819 5818 5818 5817 5816 5815 5814 5813 5813 5812 5812
5835 5838 5840 5842 5844 5846 5847 5849 5849 5848 5848 5849 5850 5851 5852 5853 5855 5856 5857 5858 5857 5857 5857 5856 5855 5855 5854 5853 5852 5851 5850 5849 5847 5845 5844 5843 5841 5839 5837 5835 5833 5832 5830 5827 5825 5823 5821 5820 5819 5818 5817 5816 5815 5814 5813 5812 5811 5810 5809 5809 5808 5808 5807
5831 5833 5836 5838 5839 5841 5843 5844 5844 5844 5844 5844 5845 5846 5848 5850 5851 5853 5853 5853 5853 5853 5852 5852 5851 5850 5849 5848 5847 5847 5845 5844 5842 5840 5838 5837 5835 5833 5831 5830 5828 5826 5825 5823 5820 5819 5817 5816 5814 5814 5812 5810 5810 5809 5808 5807 5806 5806 5805 5804 5803 5803 5802
5826 5829 5831 5833 5835 5837 5838 5839 5839 5839 5839 5840 5841 5843 5845 5846 5848 5849 5849 5849 5849 5848 5848 5847 5846 5846 5845 5844 5843 5842 5840 5838 5836 5834 5832 5831 5829 5827 5826 5825 5823 5821 5820 5818 5816 5814 5813 5812 5811 5809 5807 5805 5805 5804 5803 5802 5801 5800 5800 5799 5798 5798 5796
5822 5825 5827 5829 5830 5832 5833 5833 5834 5835 5836 5836 5838 5840 5841 5842 5844 5845 5844 5844 5844 5843 5843 5843 5842 5841 5840 5839 5838 5836 5834 5832 5830 5828 5826 5824 5822 5821 5819 5818 5817 5815 5814 5813 5811 5810 5809 5807 5805 5804 5802 5801 5799 5798 5798 5797 5796 5795 5795 5794 5793 5792 5790
5817 5820 5822 5824 5826 5828 5828 5829 5830 5831 5832 5833 5835 5836 5837 5838 5839 5840 5840 5839 5839 5839 5839 5838 5837 5836 5835 5833 5832 5830 5828 5826 5824 5821 5820 5818 5816 5814 5813 5811 5810 5809 5808 5807 5806 5805 5804 5802 5800 5799 5798 5796 5795 5794 5794 5793 5792 5791 5791 5789 5788 5786 5784
5813 5816 5818 5820 5822 5823 5824 5825 5826 5827 5828 5829 5830 5832 5832 5833 5834 5835 5835 5834 5834 5834 5834 5833 5832 5830 5829 5828 5826 5824 5822 5820 5818 5815 5813 5811 5809 5807 5805 5804 5803 5802 5802 5801 5801 5799 5798 5797 5795 5794 5793 5792 5791 5790 5790 5789 5788 5787 5786 5784 5782 5780 5779
5809 5812 5813 5815 5817 5818 5820 5821 5822 5823 5824 5824 5825 5826 5827 5828 5829 5829 5829 5829 5829 5829 5828 5827 5826 5824 5823 5821 5820 5818 5815 5813 5811 5809 5807 5805 5803 5801 5799 5798 5797 5797 5796 5796 5795 5794 5792 5791 5790 5789 5788 5787 5786 5786 5785 5785 5784 5782 5781 5779 5776 5774 5773
5805 5807 5809 5810 5812 5814 5816 5817 5818 5819 5819 5819 5820 5820 5819 5821 5823 5824 5824 5824 5824 5823 5822 5821 5819 5818 5816 5814 5812 5810 5808 5807 5805 5803 5801 5799 5797 5795 5794 5793 5792 5792 5791 5791 5790 5788 5787 5786 5785 5784 5783 5783 5782 5781 5781 5780 5779 5777 5775 5773 5770 5769 5767
5799 5801 5804 5806 5807 5809 5810 5812 5813 5813 5813 5813 5813 5813 5814 5815 5817 5817 5818 5818 5817 5816 5815 5814 5813 5812 5810 5808 5806 5804 5801 5800 5798 5797 5795 5793 5791 5790 5789 5788 5787 5787 5786 5785 5784 5782 5781 5781 5780 5779 5779 5778 5777 5777 5776 5775 5773 5772 5770 5767 5765 5763 5761
5794 5796 5798 5800 5802 5803 5805 5806 5807 5807 5807 5807 5808 5808 5809 5810 5810 5810 5811 5812 5811 5810 5809 5808 5807 5806 5804 5802 5800 5797 5795 5793 5792 5790 5788 5787 5786 5786 5784 5783 5782 5782 5780 5779 5777 5776 5775 5775 5775 5774 5773 5772 5772 5772 5771 5770 5768 5766 5765 5762 5759 5757 5756
5789 5791 5793 5795 5796 5798 5799 5800 5800 5800 5801 5801 5802 5803 5804 5804 5805 5805 5806 5805 5805 5804 5803 5802 5801 5800 5798 5796 5793 5790 5788 5787 5785 5784 5782 5781 5781 5780 5779 5778 5777 5776 5774 5772 5771 5770 5769 5768 5768 5768 5768 5767 5767 5766 5765 5764 5762 5761 5759 5757 5754 5752 5751
5784 5786 5787 5789 5791 5792 5793 5794 5794 5795 5795 5796 5797 5798 5799 5799 5800 5800 5799 5799 5798 5797 5797 5796 5795 5793 5791 5789 5786 5784 5783 5781 5779 5778 5777 5776 5776 5775 5773 5772 5771 5769 5767 5766 5764 5764 5763 5762 5762 5763 5763 5762 5761 5760 5759 5758 5756 5755 5753 5752 5750 5749 5747
5779 5781 5783 5784 5785 5786 5788 5788 5789 5790 5790 5791 5792 5792 5793 5793 5793 5793 5792 5792 5791 5791 5790 5789 5788 5786 5784 5782 5780 5779 5777 5776 5774 5773 5772 5772 5771 5770 5768 5766 5764 5762 5761 5759 5758 5758 5759 5758 5758 5758 5757 5756 5756 5755 5753 5752 5751 5749 5747 5746 5745 5743 5741
5773 5775 5777 5778 5779 5781 5782 5783 5784 5785 5786 5786 5786 5787 5787 5787 5787 5786 5786 5785 5785 5784 5784 5783 5781 5779 5777 5775 5774 5773 5772 5771 5770 5768 5768 5767 5767 5765 5763 5761 5758 5755 5754 5755 5754 5754 5755 5755 5754 5753 5752 5751 5750 5749 5747 5746 5745 5744 5742 5740 5739 5737 5734
5768 5770 5771 5773 5774 5775 5777 5778 5779 5780 5780 5780 5781 5781 5781 5780 5780 5780 5779 5779 5778 5778 5777 5776 5774 5771 5770 5769 5768 5767 5766 5765 5765 5764 5763 5762 5762 5761 5760 5759 5756 5752 5750 5751 5751 5750 5749 5749 5749 5748 5747 5746 5745 5744 5742 5740 5739 5738 5736 5734 5732 5730 5728
5762 5764 5766 5768 5769 5770 5771 5772 5773 5774 5774 5774 5775 5775 5774 5774 5774 5773 5773 5772 5771 5771 5770 5768 5766 5764 5763 5763 5762 5762 5761 5760 5760 5760 5758 5758 5757 5756 5756 5756 5754 5751 5749 5748 5747 5745 5743 5743 5743 5742 5741 5740 5739 5738 5736 5734 5733 5731 5730 5728 5726 5725 5722